Home   Weather   Kãnpur   Past weeks

Flag for India Past Weather in Kãnpur, Uttar Pradesh, India — Yesterday and Last 2 Weeks

Now
104 °F

Haze.


Feels Like: 101 °F
Forecast: 80 / 106 °F
Wind: 5 mph from West

Location: Lucknow / Amausi

Current Time: Apr 27, 2017 at 1:07:20 pm

Latest Report: Apr 27, 2017 at 12:00 pm


Visibility: 2 mi

Pressure: 29.74 "Hg

Humidity: 16%

Dew Point: 50 °F

Location of KãnpurLocation

Past Weather in Kãnpur — Graph

°F

Kãnpur Temperature Yesterday

Maximum temperature yesterday: 106 °F (at 1:30 pm)
Minimum temperature yesterday: 81 °F (at 3:00 am)
Average temperature yesterday: 93 °F

High & Low Weather Summary for the Past Weeks

 TemperatureHumidityPressure
High109 °F (Apr 15, 4:00 pm)89% (Apr 20, 5:00 am)29.80 "Hg (Apr 20, 5:00 am)
Low66 °F (Apr 13, 5:00 am)9% (Apr 25, 12:30 pm)29.47 "Hg (Apr 20, 4:00 pm)
Average92 °F43%29.63 "Hg
* Reported Apr 12 11:30 am — Apr 27 11:30 am, Kãnpur, Weather by CustomWeather, © 2017

Note: Actual official high and low records may vary slightly from our data, if they occured in-between our weather recording intervals... More about our weather records

Advertising

Kãnpur Weather History for the Previous 24 Hours

Scroll right to see more
 ConditionsComfort  
Time TempWeatherWind HumidityBarometerVisibility
11:30 am
Thu, Apr 27
102 °FHaze.3 mph17%29.74 "Hg2 mi
11:00 am102 °FHaze.3 mph17%29.74 "Hg2 mi
10:00 am99 °FHaze.3 mph21%29.74 "Hg2 mi
9:00 am95 °FHaze.3 mph22%29.74 "Hg2 mi
8:00 am88 °FHaze.2 mph29%29.74 "Hg2 mi
7:00 am81 °FHaze.2 mph37%29.71 "Hg2 mi
6:30 am79 °FHaze.2 mph37%29.71 "Hg1 mi
6:00 am79 °FHaze.3 mph34%29.71 "Hg1 mi
5:30 am79 °FPassing clouds.3 mph37%29.71 "Hg1 mi
5:00 am81 °FPassing clouds.3 mph32%29.68 "Hg1 mi
4:00 am88 °FPassing clouds.3 mph24%29.65 "Hg1 mi
3:00 am84 °FPassing clouds.5 mph27%29.65 "Hg1 mi
2:00 am79 °FPassing clouds.No wind34%29.68 "Hg1 mi
1:00 am81 °FHaze.2 mph30%29.68 "Hg1 mi
12:00 am79 °FHaze.2 mph37%29.68 "Hg1 mi
11:00 pm
Wed, Apr 26
81 °FHaze.No wind34%29.68 "Hg1 mi
10:00 pm88 °FHaze.2 mph25%29.71 "Hg2 mi
9:00 pm90 °FHaze.2 mph24%29.68 "Hg2 mi
8:30 pm91 °FHaze.2 mph23%29.68 "Hg2 mi
8:00 pm91 °FHaze.2 mph23%29.68 "Hg2 mi
7:30 pm93 °FHaze.No wind20%29.65 "Hg2 mi
7:00 pm95 °FHaze.No wind20%29.65 "Hg2 mi
6:00 pm100 °FHaze.3 mph17%29.62 "Hg2 mi
5:30 pm102 °FHaze.5 mph15%29.62 "Hg2 mi
5:00 pm102 °FHaze.5 mph15%29.62 "Hg2 mi
4:00 pm104 °FHaze.7 mph15%29.62 "Hg2 mi
3:30 pm104 °FHaze.14 mph15%29.62 "Hg2 mi
3:00 pm106 °FHaze.16 mph13%29.62 "Hg2 mi
2:30 pm106 °FHaze.10 mph14%29.65 "Hg2 mi
2:00 pm106 °FHaze.8 mph15%29.65 "Hg2 mi
1:30 pm106 °FHaze.8 mph18%29.65 "Hg2 mi
1:00 pm102 °FHaze.10 mph18%29.68 "Hg2 mi
Weather by CustomWeather, © 2017

See weather overviewHow to use our weather pages